スペースウォッチ彗星

P/2005 JN ( Spacewatch )

English version
Home page
Updated on June 7, 2011

---------------------------------------------------------------------

・ プロフィール

発見日 2005年5月3日
発見光度 20.4等
発見者 Spacewatch program

・ 写真集

・ 軌道要素

Epoch 2005 July 9.0 TT = JDT 2453560.5
T 2005 June 20.29224 TT                                 MPC
q   2.2757438            (2000.0)            P               Q
n   0.15067800     Peri.  153.62460     -0.70916537     +0.68988579
a   3.4975948      Node    70.80034     -0.67102016     -0.59714389
e   0.3493404      Incl.    8.85689     -0.21637104     -0.40923927
P   6.54
From 23 observations 2005 Apr. 4-May 25, mean residual 0".4.

・ 星図

・ 光度変化

        m1 = 14.0 + 5 logΔ + 10.0 log r

---------------------------------------------------------------------

軌道要素はM.P.E.C. 2011-K13に掲載されたものです。
星図は StellaNavigator Ver.2.0 for Windows (アストロアーツ 編著 / アスキー出版局刊) で作成したものです。
光度グラフはComet for Windowsで作成したものです。

---------------------------------------------------------------------

Copyright(C) Seiichi Yoshida (comet@aerith.net). All rights reserved.